TimeMDT,TemperatureF,Dew PointF,Humidity,Sea Level PressureIn,VisibilityMPH,Wind Direction,Wind SpeedMPH,Gust SpeedMPH,PrecipitationIn,Events,Conditions,WindDirDegrees,DateUTC
12:53 AM,63.0,46.9,56,29.79,10.0,West,4.6,-,N/A,,Mostly Cloudy,270,2013-09-17 06:53:00
1:53 AM,63.0,46.9,56,29.80,10.0,South,5.8,-,N/A,,Mostly Cloudy,180,2013-09-17 07:53:00
2:28 AM,73.4,32.0,22,29.92,10.0,WSW,11.5,25.3,0.00,Rain,Light Rain,240,2013-09-17 08:28:00
2:53 AM,71.1,35.1,27,29.73,10.0,SE,4.6,-,0.00,,Partly Cloudy,140,2013-09-17 08:53:00
3:53 AM,66.9,39.9,37,29.73,10.0,SSE,4.6,-,N/A,,Scattered Clouds,160,2013-09-17 09:53:00
4:07 AM,66.2,41.0,40,29.90,10.0,South,6.9,-,N/A,Thunderstorm,Mostly Cloudy,180,2013-09-17 10:07:00
4:22 AM,66.2,41.0,40,29.88,10.0,Calm,Calm,-,N/A,,Scattered Clouds,0,2013-09-17 10:22:00
4:37 AM,66.2,42.8,43,29.87,10.0,ESE,3.5,-,0.00,Thunderstorm,Mostly Cloudy,120,2013-09-17 10:37:00
4:53 AM,62.1,46.0,56,29.73,8.0,NNW,3.5,-,0.02,Rain,Light Rain,330,2013-09-17 10:53:00
5:53 AM,62.1,46.9,58,29.73,10.0,East,5.8,-,0.01,,Mostly Cloudy,90,2013-09-17 11:53:00
6:14 AM,62.6,48.2,59,29.89,10.0,SSE,4.6,-,0.00,Rain-Thunderstorm,Light Rain,150,2013-09-17 12:14:00
6:53 AM,63.0,46.9,56,29.73,10.0,SSE,11.5,23.0,0.02,Rain-Thunderstorm,Light Thunderstorms and Rain,150,2013-09-17 12:53:00
7:53 AM,63.0,57.0,81,29.73,10.0,SE,13.8,23.0,0.08,Rain-Thunderstorm,Light Rain,140,2013-09-17 13:53:00
8:36 AM,64.4,48.2,56,29.86,10.0,SE,5.8,-,0.00,,Overcast,140,2013-09-17 14:36:00
8:43 AM,64.4,48.2,56,29.87,10.0,Calm,Calm,-,0.00,Thunderstorm,Thunderstorm,0,2013-09-17 14:43:00
8:53 AM,61.0,52.0,72,29.75,10.0,Calm,Calm,-,0.01,Rain-Thunderstorm,Light Thunderstorms and Rain,0,2013-09-17 14:53:00
9:14 AM,62.6,50.0,63,29.87,10.0,East,6.9,-,0.00,,Overcast,80,2013-09-17 15:14:00
9:30 AM,62.6,50.0,63,29.87,10.0,ENE,5.8,-,0.00,Thunderstorm,Thunderstorm,60,2013-09-17 15:30:00
9:53 AM,61.0,51.1,70,29.74,10.0,NE,8.1,-,0.00,,Mostly Cloudy,40,2013-09-17 15:53:00
10:53 AM,62.1,52.0,70,29.72,10.0,ENE,10.4,-,0.00,Rain,Light Rain,60,2013-09-17 16:53:00
11:53 AM,69.1,54.0,58,29.68,10.0,NE,10.4,-,0.00,,Partly Cloudy,40,2013-09-17 17:53:00
12:53 PM,77.0,51.1,40,29.63,10.0,SSW,9.2,-,N/A,,Partly Cloudy,200,2013-09-17 18:53:00
1:33 PM,80.6,46.4,30,29.74,10.0,South,20.7,27.6,N/A,,Partly Cloudy,190,2013-09-17 19:33:00
1:53 PM,81.0,43.0,26,29.56,10.0,SSW,17.3,28.8,N/A,,Clear,210,2013-09-17 19:53:00
2:53 PM,79.0,43.0,28,29.52,10.0,SSW,17.3,32.2,N/A,,Scattered Clouds,210,2013-09-17 20:53:00
3:11 PM,75.2,46.4,36,29.69,10.0,SSW,15.0,27.6,0.01,Rain-Thunderstorm,Light Thunderstorms and Rain,200,2013-09-17 21:11:00
3:38 PM,71.6,50.0,46,29.68,10.0,SW,10.4,-,0.04,,Mostly Cloudy,220,2013-09-17 21:38:00
3:53 PM,72.0,48.9,44,29.54,10.0,NW,4.6,-,0.04,Rain-Thunderstorm,Light Rain,320,2013-09-17 21:53:00
4:07 PM,71.6,48.2,43,29.69,10.0,WNW,4.6,-,N/A,,Overcast,290,2013-09-17 22:07:00
4:15 PM,71.6,46.4,41,29.69,10.0,WSW,3.5,-,N/A,Thunderstorm,Overcast,240,2013-09-17 22:15:00
4:43 PM,73.4,44.6,36,29.68,10.0,SSW,6.9,21.9,N/A,Thunderstorm,Mostly Cloudy,210,2013-09-17 22:43:00
4:53 PM,72.0,46.0,40,29.53,10.0,South,6.9,-,N/A,Thunderstorm,Scattered Clouds,180,2013-09-17 22:53:00
5:17 PM,66.2,42.8,43,29.72,10.0,West,6.9,24.2,0.03,Rain-Thunderstorm,Light Thunderstorms and Rain,270,2013-09-17 23:17:00
5:53 PM,61.0,48.0,62,29.66,10.0,WSW,8.1,27.6,0.05,Rain-Thunderstorm,Light Thunderstorms and Rain,250,2013-09-17 23:53:00
6:30 PM,60.8,48.2,63,29.77,10.0,WSW,13.8,21.9,0.01,Rain,Light Rain,240,2013-09-18 00:30:00
6:53 PM,59.0,50.0,72,29.61,10.0,Variable,5.8,-,0.02,Rain,Light Rain,0,2013-09-18 00:53:00
7:53 PM,60.1,46.9,62,29.58,10.0,South,15.0,21.9,N/A,,Partly Cloudy,170,2013-09-18 01:53:00
8:53 PM,60.1,46.0,60,29.61,10.0,South,6.9,-,N/A,,Clear,180,2013-09-18 02:53:00
9:53 PM,59.0,46.9,64,29.64,10.0,Calm,Calm,-,N/A,,Clear,0,2013-09-18 03:53:00
10:53 PM,60.1,45.0,57,29.62,10.0,South,10.4,-,N/A,,Clear,180,2013-09-18 04:53:00
11:53 PM,57.9,45.0,62,29.62,10.0,South,10.4,-,N/A,,Clear,190,2013-09-18 05:53:00